{"data":{"norad_id":58700,"epoch":"2026-09-19T23:29:34.239264Z","epoch_age_seconds":59416,"freshness":"FRESH","line1":"1 58700U 24004A   26262.97886851  .00003593  00000+0  13634-3 0  9999","line2":"2 58700  97.4674  89.2141 0007437  14.0923 346.0523 15.27485460150241","mean_motion":15.2748546,"eccentricity":0.0007437,"inclination_deg":97.4674,"raan_deg":89.2141,"arg_perigee_deg":14.0923,"mean_anomaly_deg":346.0523,"bstar":0.00013634,"rev_number":15024,"period_min":94.272583124948,"perigee_km":478.22932276883,"apogee_km":488.43507205306,"semimajor_km":6861.4691974109,"source":"CELESTRAK","updated_at":"2026-09-20T09:00:33.255956Z"}}